• In Hungary
  • List of Countries
  • For 7 days
  • Water Temperature
  • Satellite Maps
  • Weather Map
  • News
  • Weather Widgets
  • user-avatar
    Login

    Hourly Weather Parfenovka

    Today, 24 September, Monday

    Time Temperature Precipitation Wind Pressure Humidity
    00:00 +17°C° 0 mm 4 mps 755 mmHg 44%
    01:00 +17°C° 0 mm 4 mps 754 mmHg 42%
    02:00 +15°C° 0 mm 4 mps 754 mmHg 40%
    03:00 +15°C° 0 mm 5 mps 754 mmHg 38%
    04:00 +15°C° 0 mm 5 mps 753 mmHg 40%
    05:00 +15°C° 0 mm 5 mps 753 mmHg 41%
    06:00 +15°C° 0 mm 5 mps 753 mmHg 43%
    07:00 +16°C° 0 mm 6 mps 753 mmHg 43%
    08:00 +18°C° 0 mm 7 mps 753 mmHg 42%
    09:00 +20°C° 0 mm 7 mps 752 mmHg 42%
    10:00 +20°C° 0 mm 7 mps 753 mmHg 44%
    11:00 +20°C° 0 mm 7 mps 753 mmHg 47%
    12:00 +20°C° 0 mm 6 mps 753 mmHg 49%
    13:00 +19°C° 0.3 mm 6 mps 753 mmHg 59%
    14:00 +16°C° 0.3 mm 5 mps 753 mmHg 68%
    15:00 +15°C° 0.3 mm 4 mps 754 mmHg 78%
    16:00 +14°C° 0.1 mm 4 mps 754 mmHg 81%
    17:00 +13°C° 0.1 mm 3 mps 754 mmHg 84%
    18:00 +13°C° 0.1 mm 2 mps 754 mmHg 88%
    19:00 +12°C° 0 mm 2 mps 754 mmHg 88%
    20:00 +12°C° 0 mm 2 mps 754 mmHg 89%
    21:00 +10°C° 0 mm 2 mps 755 mmHg 89%
    22:00 +9°C° 0 mm 2 mps 755 mmHg 90%
    23:00 +9°C° 0 mm 2 mps 755 mmHg 90%

    Tomorrow, 25 September, Tuesday

    Time Temperature Precipitation Wind Pressure Humidity
    00:00 +10°C° 0 mm 1 mps 755 mmHg 91%
    01:00 +9°C° 0 mm 1 mps 755 mmHg 91%
    02:00 +9°C° 0 mm 1 mps 755 mmHg 91%
    03:00 +9°C° 0 mm 1 mps 755 mmHg 90%
    04:00 +9°C° 0 mm 1 mps 754 mmHg 90%
    05:00 +8°C° 0 mm 2 mps 754 mmHg 90%
    06:00 +8°C° 0 mm 2 mps 754 mmHg 90%
    07:00 +10°C° 0 mm 3 mps 754 mmHg 81%
    08:00 +12°C° 0 mm 4 mps 754 mmHg 72%
    09:00 +14°C° 0 mm 5 mps 753 mmHg 63%
    10:00 +16°C° 0 mm 6 mps 753 mmHg 56%
    11:00 +17°C° 0 mm 6 mps 753 mmHg 50%
    12:00 +20°C° 0 mm 7 mps 752 mmHg 43%
    13:00 +18°C° 0 mm 7 mps 752 mmHg 43%
    14:00 +18°C° 0 mm 7 mps 752 mmHg 43%
    15:00 +18°C° 0 mm 7 mps 751 mmHg 42%
    16:00 +19°C° 0.1 mm 6 mps 751 mmHg 45%
    17:00 +19°C° 0.1 mm 6 mps 751 mmHg 47%
    18:00 +17°C° 0.1 mm 6 mps 751 mmHg 49%
    19:00 +17°C° 0.1 mm 7 mps 751 mmHg 50%
    20:00 +17°C° 0.1 mm 7 mps 751 mmHg 51%
    21:00 +18°C° 0.1 mm 7 mps 752 mmHg 52%
    22:00 +16°C° 0.3 mm 6 mps 752 mmHg 61%
    23:00 +14°C° 0.3 mm 5 mps 752 mmHg 70%

    Day after tomorrow, 26 September, Wednesday

    Time Temperature Precipitation Wind Pressure Humidity
    00:00 +13°C° 0.3 mm 4 mps 753 mmHg 79%
    01:00 +12°C° 0.3 mm 4 mps 753 mmHg 79%
    02:00 +12°C° 0.3 mm 3 mps 754 mmHg 78%
    03:00 +11°C° 0.3 mm 3 mps 754 mmHg 78%
    04:00 +11°C° 0.2 mm 3 mps 755 mmHg 78%
    05:00 +10°C° 0.2 mm 3 mps 755 mmHg 79%
    06:00 +10°C° 0.2 mm 3 mps 756 mmHg 80%
    07:00 +10°C° 0 mm 4 mps 756 mmHg 76%
    08:00 +11°C° 0 mm 4 mps 757 mmHg 72%
    09:00 +10°C° 0 mm 5 mps 758 mmHg 69%
    10:00 +12°C° 0 mm 5 mps 758 mmHg 65%
    11:00 +13°C° 0 mm 5 mps 758 mmHg 61%
    12:00 +13°C° 0 mm 5 mps 758 mmHg 57%
    13:00 +13°C° 0 mm 5 mps 759 mmHg 57%
    14:00 +13°C° 0 mm 4 mps 759 mmHg 57%
    15:00 +13°C° 0 mm 4 mps 759 mmHg 57%
    16:00 +12°C° 0 mm 3 mps 760 mmHg 61%
    17:00 +11°C° 0 mm 3 mps 760 mmHg 65%
    18:00 +10°C° 0 mm 2 mps 760 mmHg 69%
    19:00 +9°C° 0 mm 2 mps 761 mmHg 71%
    20:00 +9°C° 0 mm 1 mps 761 mmHg 74%
    21:00 +9°C° 0 mm 1 mps 761 mmHg 77%
    22:00 +8°C° 0 mm 1 mps 761 mmHg 79%
    23:00 +8°C° 0 mm 1 mps 761 mmHg 80%

    27 September, Thursday

    Time Temperature Precipitation Wind Pressure Humidity
    00:00 +7°C° 0 mm 1 mps 761 mmHg 82%
    01:00 +7°C° 0 mm 1 mps 761 mmHg 83%
    02:00 +7°C° 0 mm 1 mps 761 mmHg 85%
    03:00 +6°C° 0 mm 1 mps 761 mmHg 86%
    04:00 +6°C° 0 mm 1 mps 761 mmHg 86%
    05:00 +6°C° 0 mm 1 mps 761 mmHg 86%
    06:00 +4°C° 0 mm 2 mps 761 mmHg 86%
    07:00 +6°C° 0 mm 2 mps 760 mmHg 77%
    08:00 +8°C° 0 mm 3 mps 760 mmHg 68%
    09:00 +10°C° 0 mm 4 mps 760 mmHg 58%
    10:00 +11°C° 0 mm 4 mps 759 mmHg 55%
    11:00 +12°C° 0 mm 5 mps 759 mmHg 51%
    12:00 +13°C° 0 mm 6 mps 758 mmHg 48%
    13:00 +13°C° 0 mm 6 mps 758 mmHg 47%
    14:00 +13°C° 0 mm 6 mps 757 mmHg 46%
    15:00 +13°C° 0 mm 6 mps 757 mmHg 45%
    16:00 +11°C° 0 mm 6 mps 757 mmHg 45%
    17:00 +10°C° 0 mm 5 mps 756 mmHg 46%
    18:00 +10°C° 0 mm 4 mps 756 mmHg 47%
    19:00 +9°C° 0.1 mm 5 mps 756 mmHg 49%
    20:00 +9°C° 0.1 mm 5 mps 756 mmHg 52%
    21:00 +8°C° 0.1 mm 5 mps 756 mmHg 55%
    22:00 +8°C° 0.3 mm 6 mps 755 mmHg 58%
    23:00 +8°C° 0.3 mm 6 mps 755 mmHg 61%

    28 September, Friday

    Time Temperature Precipitation Wind Pressure Humidity
    00:00 +7°C° 0.3 mm 6 mps 755 mmHg 65%
    01:00 +7°C° 0 mm 6 mps 755 mmHg 66%
    02:00 +7°C° 0 mm 6 mps 755 mmHg 67%
    03:00 +7°C° 0 mm 6 mps 755 mmHg 68%
    04:00 +7°C° 0 mm 5 mps 755 mmHg 71%
    05:00 +7°C° 0 mm 4 mps 755 mmHg 75%
    06:00 +6°C° 0 mm 4 mps 755 mmHg 79%
    07:00 +8°C° 0 mm 4 mps 756 mmHg 75%
    08:00 +9°C° 0 mm 5 mps 756 mmHg 71%
    09:00 +10°C° 0 mm 5 mps 756 mmHg 67%
    10:00 +12°C° 0 mm 5 mps 756 mmHg 65%
    11:00 +12°C° 0 mm 5 mps 756 mmHg 62%
    12:00 +13°C° 0 mm 4 mps 756 mmHg 59%
    13:00 +14°C° 0 mm 5 mps 756 mmHg 59%
    14:00 +14°C° 0 mm 5 mps 756 mmHg 58%
    15:00 +14°C° 0 mm 5 mps 755 mmHg 57%
    16:00 +14°C° 0 mm 5 mps 755 mmHg 59%
    17:00 +14°C° 0 mm 4 mps 755 mmHg 61%
    18:00 +13°C° 0 mm 4 mps 754 mmHg 64%
    19:00 +13°C° 0 mm 5 mps 754 mmHg 64%
    20:00 +13°C° 0 mm 6 mps 754 mmHg 65%
    21:00 +12°C° 0 mm 7 mps 753 mmHg 65%
    22:00 +12°C° 0 mm 7 mps 753 mmHg 65%
    23:00 +14°C° 0 mm 7 mps 753 mmHg 64%

    29 September, Saturday

    Time Temperature Precipitation Wind Pressure Humidity
    00:00 +13°C° 0 mm 8 mps 752 mmHg 64%
    01:00 +13°C° 0 mm 8 mps 753 mmHg 65%
    02:00 +14°C° 0 mm 7 mps 753 mmHg 66%
    03:00 +14°C° 0 mm 7 mps 754 mmHg 68%
    04:00 +13°C° 0.1 mm 6 mps 755 mmHg 67%
    05:00 +12°C° 0.1 mm 5 mps 755 mmHg 67%
    06:00 +10°C° 0.1 mm 4 mps 756 mmHg 66%
    07:00 +10°C° 0 mm 3 mps 756 mmHg 63%
    08:00 +10°C° 0 mm 3 mps 757 mmHg 61%
    09:00 +10°C° 0 mm 2 mps 757 mmHg 58%
    10:00 +12°C° 0 mm 2 mps 757 mmHg 53%
    11:00 +13°C° 0 mm 2 mps 758 mmHg 49%
    12:00 +14°C° 0 mm 2 mps 758 mmHg 44%
    13:00 +15°C° 0 mm 2 mps 758 mmHg 43%
    14:00 +15°C° 0 mm 2 mps 758 mmHg 41%
    15:00 +15°C° 0 mm 2 mps 758 mmHg 40%
    16:00 +14°C° 0 mm 2 mps 758 mmHg 43%
    17:00 +14°C° 0 mm 1 mps 758 mmHg 46%
    18:00 +13°C° 0 mm 1 mps 758 mmHg 49%
    19:00 +12°C° 0.2 mm 1 mps 758 mmHg 52%
    20:00 +12°C° 0.2 mm 1 mps 759 mmHg 55%
    21:00 +11°C° 0.2 mm 1 mps 759 mmHg 59%
    22:00 +11°C° 0.2 mm 1 mps 759 mmHg 63%
    23:00 +10°C° 0.2 mm 2 mps 759 mmHg 66%
    Show more

    3.3.7123123